| time (UTC) | temp C | wind direction | speed KPH | gust KPH | rain 1hr cm | rain 24hr cm | rain mn cm | humidity % | barometer mb |
| 20260508043047 | 6 | 235 | 0.0 | 1.6 | 0.00 | 2.18 | 0.00 | 98 | 1001.8 |
| 20260508041545 | 6 | 235 | 0.0 | 0.0 | 0.00 | 2.18 | 0.00 | 98 | 1002.1 |
| 20260508040043 | 6 | 235 | 0.0 | 0.0 | 0.00 | 2.18 | 0.00 | 98 | 1002.1 |
| 20260508034542 | 6 | 235 | 0.0 | 0.0 | 0.00 | 2.18 | 0.00 | 98 | 1002.4 |
| 20260508033141 | 6 | 235 | 1.6 | 3.2 | 0.00 | 2.18 | 0.00 | 98 | 1002.5 |
| 20260508031538 | 6 | 235 | 1.6 | 4.8 | 0.00 | 2.18 | 0.00 | 98 | 1002.4 |
| 20260508030035 | 6 | 235 | 3.2 | 6.4 | 0.00 | 2.18 | 2.18 | 98 | 1002.6 |
| 20260508024541 | 6 | 235 | 1.6 | 6.4 | 0.00 | 2.18 | 2.18 | 98 | 1002.4 |
| 20260508023037 | 6 | 235 | 1.6 | 6.4 | 0.00 | 2.18 | 2.18 | 98 | 1002.3 |
| 20260508021535 | 6 | 235 | 1.6 | 6.4 | 0.00 | 2.18 | 2.18 | 98 | 1002.3 |
| 20260508020033 | 6 | 255 | 3.2 | 11.3 | 0.00 | 2.18 | 2.18 | 98 | 1002.4 |
| 20260508014534 | 6 | 247 | 6.4 | 12.9 | 0.00 | 2.18 | 2.18 | 98 | 1002.8 |
| 20260508013031 | 6 | 262 | 1.6 | 12.9 | 0.00 | 2.18 | 2.18 | 98 | 1002.4 |
| 20260508011541 | 6 | 229 | 4.8 | 12.9 | 0.00 | 2.18 | 2.18 | 98 | 1002.4 |
| 20260508010032 | 6 | 231 | 6.4 | 16.1 | 0.00 | 2.18 | 2.18 | 98 | 1002.8 |
| 20260508004525 | 7 | 228 | 9.7 | 14.5 | 0.00 | 2.18 | 2.18 | 98 | 1003.2 |
| 20260508003034 | 7 | 229 | 8.0 | 16.1 | 0.00 | 2.18 | 2.18 | 97 | 1002.7 |
| 20260508001522 | 7 | 200 | 4.8 | 16.1 | 0.03 | 2.18 | 2.18 | 98 | 1003.1 |
| 20260508000021 | 7 | 200 | 8.0 | 17.7 | 0.03 | 2.18 | 2.18 | 98 | 1003.2 |
| 20260507234520 | 7 | 193 | 11.3 | 22.5 | 0.03 | 2.18 | 2.18 | 97 | 1003.0 |
| 20260507233020 | 7 | 214 | 9.7 | 16.1 | 0.03 | 2.18 | 2.18 | 98 | 1003.7 |
| 20260507231518 | 7 | 198 | 11.3 | 19.3 | 0.00 | 2.16 | 2.16 | 97 | 1003.6 |
| 20260507230017 | 7 | 188 | 8.0 | 22.5 | 0.00 | 2.16 | 2.16 | 97 | 1003.7 |
| 20260507224518 | 7 | 208 | 4.8 | 17.7 | 0.00 | 2.16 | 2.16 | 97 | 1003.5 |
| 20260507223017 | 7 | 182 | 9.7 | 22.5 | 0.03 | 2.16 | 2.16 | 97 | 1003.6 |
| 20260507221517 | 8 | 192 | 12.9 | 22.5 | 0.05 | 2.16 | 2.16 | 97 | 1003.8 |
| 20260507220015 | 7 | 162 | 11.3 | 24.1 | 0.23 | 2.16 | 2.16 | 97 | 1003.7 |
| 20260507214514 | 7 | 204 | 14.5 | 29.0 | 0.43 | 2.16 | 2.16 | 97 | 1003.5 |
| 20260507213015 | 7 | 185 | 11.3 | 25.7 | 0.58 | 2.13 | 2.13 | 97 | 1003.9 |
| 20260507211510 | 7 | 180 | 9.7 | 17.7 | 0.76 | 2.11 | 2.11 | 97 | 1004.3 |
| 20260507210008 | 7 | 187 | 14.5 | 24.1 | 0.89 | 1.93 | 1.93 | 97 | 1004.6 |
| 20260507204507 | 7 | 229 | 11.3 | 22.5 | 1.07 | 1.73 | 1.73 | 97 | 1005.1 |
| 20260507203005 | 8 | 234 | 16.1 | 27.4 | 1.09 | 1.55 | 1.55 | 97 | 1005.8 |
| 20260507201504 | 7 | 148 | 14.5 | 27.4 | 1.02 | 1.35 | 1.35 | 97 | 1005.2 |
| 20260507200002 | 7 | 158 | 14.5 | 25.7 | 0.84 | 1.07 | 1.07 | 97 | 1005.6 |
| 20260507194601 | 7 | 188 | 16.1 | 29.0 | 0.53 | 0.66 | 0.66 | 97 | 1006.0 |
| 20260507193110 | 7 | 187 | 16.1 | 37.0 | 0.41 | 0.48 | 0.48 | 97 | 1005.8 |
| 20260507191600 | 8 | 164 | 12.9 | 25.7 | 0.30 | 0.33 | 0.33 | 97 | 1006.2 |
| 20260507184555 | 8 | 195 | 12.9 | 37.0 | 0.13 | 0.13 | 0.13 | 97 | 1006.5 |
| 20260507183058 | 8 | 170 | 20.9 | 38.6 | 0.08 | 0.08 | 0.08 | 97 | 1006.4 |
| 20260507181552 | 7 | 152 | 22.5 | 38.6 | 0.03 | 0.03 | 0.03 | 97 | 1006.4 |
| 20260507180053 | 7 | 152 | 19.3 | 32.2 | 0.00 | 0.00 | 0.00 | 96 | 1006.6 |
| 20260507174548 | 7 | 193 | 22.5 | 38.6 | 0.00 | 0.00 | 0.00 | 96 | 1006.8 |
| 20260507173052 | 7 | 195 | 16.1 | 40.2 | 0.00 | 0.00 | 0.00 | 95 | 1007.6 |
| 20260507171544 | 8 | 146 | 24.1 | 40.2 | 0.00 | 0.00 | 0.00 | 95 | 1007.1 |
| 20260507170040 | 8 | 179 | 19.3 | 37.0 | 0.00 | 0.00 | 0.00 | 95 | 1007.9 |
| 20260507164539 | 8 | 166 | 14.5 | 30.6 | 0.00 | 0.00 | 0.00 | 95 | 1008.0 |
| 20260507163036 | 9 | 169 | 19.3 | 40.2 | 0.00 | 0.00 | 0.00 | 95 | 1008.5 |
| 20260507161533 | 9 | 248 | 11.3 | 33.8 | 0.00 | 0.00 | 0.00 | 96 | 1009.0 |
| 20260507160034 | 8 | 141 | 14.5 | 33.8 | 0.00 | 0.00 | 0.00 | 95 | 1009.3 |
| 20260507154532 | 9 | 168 | 12.9 | 25.7 | 0.00 | 0.00 | 0.00 | 96 | 1009.5 |
| 20260507153028 | 9 | 137 | 14.5 | 22.5 | 0.00 | 0.00 | 0.00 | 96 | 1009.9 |
| 20260507151527 | 8 | 220 | 19.3 | 35.4 | 0.00 | 0.00 | 0.00 | 96 | 1010.4 |
| 20260507150027 | 8 | 180 | 14.5 | 27.4 | 0.00 | 0.00 | 0.00 | 96 | 1010.4 |
| 20260507144524 | 8 | 191 | 16.1 | 35.4 | 0.00 | 0.00 | 0.00 | 96 | 1010.7 |
| 20260507143021 | 9 | 103 | 16.1 | 33.8 | 0.00 | 0.00 | 0.00 | 96 | 1011.3 |
| 20260507141521 | 10 | 185 | 16.1 | 33.8 | 0.00 | 0.00 | 0.00 | 96 | 1011.6 |
| 20260507140021 | 9 | 168 | 14.5 | 33.8 | 0.00 | 0.00 | 0.00 | 96 | 1011.5 |
| 20260507134521 | 9 | 175 | 22.5 | 35.4 | 0.00 | 0.00 | 0.00 | 96 | 1011.9 |
| 20260507133019 | 8 | 195 | 17.7 | 32.2 | 0.00 | 0.00 | 0.00 | 97 | 1011.7 |
| 20260507131519 | 8 | 187 | 16.1 | 32.2 | 0.00 | 0.00 | 0.00 | 96 | 1011.7 |
| 20260507130013 | 7 | 185 | 16.1 | 33.8 | 0.00 | 0.00 | 0.00 | 96 | 1011.8 |
| 20260507124511 | 8 | 166 | 19.3 | 30.6 | 0.00 | 0.00 | 0.00 | 96 | 1012.2 |
| 20260507123010 | 8 | 177 | 11.3 | 30.6 | 0.00 | 0.00 | 0.00 | 96 | 1013.0 |
| 20260507121506 | 8 | 150 | 12.9 | 25.7 | 0.00 | 0.00 | 0.00 | 96 | 1013.1 |
| 20260507120005 | 8 | 163 | 14.5 | 27.4 | 0.00 | 0.00 | 0.00 | 96 | 1014.0 |
| 20260507114504 | 8 | 171 | 16.1 | 29.0 | 0.00 | 0.00 | 0.00 | 96 | 1013.6 |
| 20260507113004 | 8 | 171 | 14.5 | 27.4 | 0.00 | 0.00 | 0.00 | 96 | 1014.3 |
| 20260507111503 | 8 | 177 | 17.7 | 30.6 | 0.00 | 0.00 | 0.00 | 96 | 1013.9 |
| 20260507110002 | 8 | 165 | 12.9 | 30.6 | 0.00 | 0.00 | 0.00 | 96 | 1013.8 |
| 20260507104559 | 8 | 137 | 9.7 | 25.7 | 0.00 | 0.00 | 0.00 | 96 | 1014.3 |
| 20260507103059 | 7 | 198 | 11.3 | 20.9 | 0.00 | 0.00 | 0.00 | 96 | 1014.7 |
| 20260507101556 | 8 | 182 | 8.0 | 24.1 | 0.00 | 0.00 | 0.00 | 96 | 1014.0 |
| 20260507100058 | 7 | 155 | 9.7 | 19.3 | 0.00 | 0.00 | 0.00 | 96 | 1014.3 |
| 20260507094653 | 8 | 202 | 9.7 | 27.4 | 0.00 | 0.00 | 0.00 | 96 | 1014.2 |
| 20260507093050 | 8 | 155 | 11.3 | 22.5 | 0.00 | 0.00 | 0.00 | 96 | 1014.3 |
| 20260507091548 | 7 | 231 | 9.7 | 19.3 | 0.00 | 0.00 | 0.00 | 96 | 1014.9 |
| 20260507090048 | 8 | 214 | 9.7 | 22.5 | 0.00 | 0.00 | 0.00 | 96 | 1014.8 |
| 20260507084550 | 8 | 203 | 9.7 | 24.1 | 0.00 | 0.00 | 0.00 | 96 | 1014.6 |
| 20260507083047 | 8 | 181 | 11.3 | 25.7 | 0.00 | 0.00 | 0.00 | 95 | 1014.6 |
| 20260507081537 | 8 | 186 | 11.3 | 20.9 | 0.00 | 0.00 | 0.00 | 95 | 1014.9 |
| 20260507080035 | 9 | 202 | 11.3 | 27.4 | 0.00 | 0.00 | 0.00 | 95 | 1015.1 |
| 20260507074537 | 9 | 220 | 11.3 | 20.9 | 0.00 | 0.00 | 0.00 | 94 | 1015.2 |
| 20260507073031 | 10 | 197 | 11.3 | 17.7 | 0.00 | 0.00 | 0.00 | 94 | 1015.3 |
| 20260507071548 | 9 | 191 | 9.7 | 19.3 | 0.00 | 0.00 | 0.00 | 94 | 1015.7 |
| 20260507070030 | 8 | 185 | 6.4 | 16.1 | 0.00 | 0.00 | 0.00 | 95 | 1016.0 |
| 20260507064527 | 8 | 173 | 11.3 | 19.3 | 0.00 | 0.00 | 0.00 | 95 | 1015.9 |
| 20260507063027 | 8 | 181 | 12.9 | 22.5 | 0.00 | 0.00 | 0.00 | 95 | 1016.0 |
| 20260507061522 | 8 | 176 | 9.7 | 27.4 | 0.00 | 0.00 | 0.00 | 95 | 1016.3 |
| 20260507060020 | 8 | 217 | 11.3 | 24.1 | 0.00 | 0.00 | 0.00 | 95 | 1016.3 |
| 20260507054518 | 9 | 184 | 11.3 | 19.3 | 0.00 | 0.00 | 0.00 | 95 | 1016.5 |
| 20260507053016 | 9 | 218 | 8.0 | 16.1 | 0.00 | 0.00 | 0.00 | 96 | 1016.8 |
| 20260507051513 | 9 | 220 | 11.3 | 20.9 | 0.00 | 0.00 | 0.00 | 96 | 1017.0 |
| 20260507050012 | 9 | 199 | 12.9 | 19.3 | 0.00 | 0.00 | 0.00 | 96 | 1017.2 |
| 20260507044510 | 9 | 212 | 12.9 | 24.1 | 0.00 | 0.00 | 0.00 | 96 | 1017.3 |